Time,TemperatureF,DewpointF,PressureIn,WindDirection,WindDirectionDegrees,WindSpeedMPH,WindSpeedGustMPH,Humidity,HourlyPrecipIn,Conditions,Clouds,dailyrainin,SoftwareType,DateUTC
2013-05-07 00:02:00,62.4,47.0,29.96,West,270,0.0,0.0,57,0.00,OVC,FEW,0.00,WeatherDisplay:10.37,2013-05-07 05:02:00,
2013-05-07 00:08:00,62.4,47.0,29.95,NW,315,0.0,0.0,57,0.00,OVC,FEW,0.00,WeatherDisplay:10.37,2013-05-07 05:08:00,
2013-05-07 00:14:00,62.4,47.0,29.96,NW,315,0.0,0.0,57,0.00,OVC,FEW,0.00,WeatherDisplay:10.37,2013-05-07 05:14:00,
2013-05-07 00:19:00,62.4,47.0,29.96,NW,315,0.0,0.0,57,0.00,OVC,FEW,0.00,WeatherDisplay:10.37,2013-05-07 05:19:00,
2013-05-07 00:25:00,62.4,47.0,29.95,NW,315,0.0,0.0,57,0.00,OVC,FEW,0.00,WeatherDisplay:10.37,2013-05-07 05:25:00,
2013-05-07 00:30:00,62.4,47.9,29.96,NW,315,0.0,0.0,59,0.00,OVC,FEW,0.00,WeatherDisplay:10.37,2013-05-07 05:30:00,
2013-05-07 00:36:00,62.4,48.3,29.96,NW,315,0.0,0.0,60,0.00,OVC,FEW,0.00,WeatherDisplay:10.37,2013-05-07 05:36:00,
2013-05-07 00:42:00,62.1,48.0,29.96,NW,315,0.0,0.0,60,0.00,OVC,FEW,0.00,WeatherDisplay:10.37,2013-05-07 05:42:00,
2013-05-07 00:47:00,62.1,47.6,29.96,NW,315,0.0,0.0,59,0.00,OVC,FEW,0.00,WeatherDisplay:10.37,2013-05-07 05:47:00,
2013-05-07 00:53:00,61.9,46.9,29.96,NW,315,0.0,0.0,58,0.00,OVC,FEW,0.00,WeatherDisplay:10.37,2013-05-07 05:53:00,
2013-05-07 00:58:00,61.9,46.9,29.95,NW,315,0.0,0.0,58,0.00,OVC,FEW,0.00,WeatherDisplay:10.37,2013-05-07 05:58:00,
2013-05-07 01:04:00,62.2,48.2,29.96,NW,315,0.0,0.0,60,0.00,OVC,FEW,0.00,WeatherDisplay:10.37,2013-05-07 06:04:00,
2013-05-07 01:10:00,62.1,47.6,29.96,NW,315,0.0,0.0,59,0.00,OVC,FEW,0.00,WeatherDisplay:10.37,2013-05-07 06:10:00,
2013-05-07 01:15:00,62.2,47.3,29.96,NW,315,0.0,0.0,58,0.00,OVC,FEW,0.00,WeatherDisplay:10.37,2013-05-07 06:15:00,
2013-05-07 01:21:00,62.1,47.1,29.96,NW,315,0.0,0.0,58,0.00,OVC,FEW,0.00,WeatherDisplay:10.37,2013-05-07 06:21:00,
2013-05-07 01:26:00,62.1,48.0,29.96,NW,315,0.0,0.0,60,0.00,OVC,FEW,0.00,WeatherDisplay:10.37,2013-05-07 06:26:00,
2013-05-07 01:32:00,62.1,48.4,29.95,NW,315,0.0,0.0,61,0.00,OVC,FEW,0.00,WeatherDisplay:10.37,2013-05-07 06:32:00,
2013-05-07 01:38:00,61.7,48.5,29.95,NW,315,0.0,0.0,62,0.00,OVC,FEW,0.00,WeatherDisplay:10.37,2013-05-07 06:38:00,
2013-05-07 01:43:00,61.7,48.1,29.95,NW,315,0.0,0.0,61,0.00,OVC,FEW,0.00,WeatherDisplay:10.37,2013-05-07 06:43:00,
2013-05-07 01:49:00,61.3,48.2,29.95,NW,315,0.0,0.0,62,0.00,OVC,FEW,0.00,WeatherDisplay:10.37,2013-05-07 06:49:00,
2013-05-07 01:54:00,61.2,48.5,29.95,NW,315,0.0,0.0,63,0.00,OVC,FEW,0.00,WeatherDisplay:10.37,2013-05-07 06:54:00,
2013-05-07 02:00:00,61.0,48.7,29.95,NW,315,0.0,0.0,64,0.00,OVC,FEW,0.00,WeatherDisplay:10.37,2013-05-07 07:00:00,
2013-05-07 02:06:00,60.6,48.4,29.95,NW,315,0.0,0.0,64,0.00,OVC,FEW,0.00,WeatherDisplay:10.37,2013-05-07 07:06:00,
2013-05-07 02:11:00,60.3,48.4,29.95,NW,315,0.0,0.0,65,0.00,OVC,FEW,0.00,WeatherDisplay:10.37,2013-05-07 07:11:00,
2013-05-07 02:17:00,59.9,48.5,29.95,NW,315,0.0,0.0,66,0.00,OVC,FEW,0.00,WeatherDisplay:10.37,2013-05-07 07:17:00,
2013-05-07 02:22:00,59.5,48.2,29.96,NW,315,0.0,0.0,66,0.00,OVC,FEW,0.00,WeatherDisplay:10.37,2013-05-07 07:22:00,
2013-05-07 02:28:00,59.2,48.2,29.96,NW,315,0.0,0.0,67,0.00,OVC,FEW,0.00,WeatherDisplay:10.37,2013-05-07 07:28:00,
2013-05-07 02:34:00,58.8,48.7,29.95,NW,315,0.0,0.0,69,0.00,OVC,FEW,0.00,WeatherDisplay:10.37,2013-05-07 07:34:00,
2013-05-07 02:39:00,58.6,48.9,29.95,NW,315,0.0,0.0,70,0.00,OVC,FEW,0.00,WeatherDisplay:10.37,2013-05-07 07:39:00,
2013-05-07 02:45:00,58.5,49.1,29.95,NW,315,0.0,0.0,71,0.00,OVC,FEW,0.00,WeatherDisplay:10.37,2013-05-07 07:45:00,
2013-05-07 02:50:00,58.1,48.7,29.95,NW,315,0.0,0.0,71,0.00,OVC,FEW,0.00,WeatherDisplay:10.37,2013-05-07 07:50:00,
2013-05-07 02:56:00,57.6,48.6,29.95,NW,315,0.0,0.0,72,0.00,OVC,FEW,0.00,WeatherDisplay:10.37,2013-05-07 07:56:00,
2013-05-07 03:02:00,57.2,49.0,29.96,NW,315,0.0,0.0,74,0.00,OVC,FEW,0.00,WeatherDisplay:10.37,2013-05-07 08:02:00,
2013-05-07 03:07:00,57.0,49.2,29.95,NW,315,0.0,0.0,75,0.00,OVC,FEW,0.00,WeatherDisplay:10.37,2013-05-07 08:07:00,
2013-05-07 03:13:00,57.0,49.5,29.95,West,270,0.0,0.0,76,0.00,OVC,FEW,0.00,WeatherDisplay:10.37,2013-05-07 08:13:00,
2013-05-07 03:18:00,56.8,49.7,29.95,NW,315,0.0,0.0,77,0.00,OVC,FEW,0.00,WeatherDisplay:10.37,2013-05-07 08:18:00,
2013-05-07 03:24:00,56.7,49.9,29.95,NW,315,0.0,0.0,78,0.00,OVC,FEW,0.00,WeatherDisplay:10.37,2013-05-07 08:24:00,
2013-05-07 03:30:00,56.7,50.6,29.95,NW,315,0.0,0.0,80,0.00,OVC,FEW,0.00,WeatherDisplay:10.37,2013-05-07 08:30:00,
2013-05-07 03:35:00,56.8,50.7,29.95,NW,315,0.0,0.0,80,0.00,OVC,FEW,0.00,WeatherDisplay:10.37,2013-05-07 08:35:00,
2013-05-07 03:41:00,57.2,50.7,29.95,NW,315,0.7,1.6,79,0.00,OVC,FEW,0.00,WeatherDisplay:10.37,2013-05-07 08:41:00,
2013-05-07 03:46:00,57.2,50.7,29.96,NW,315,0.0,0.0,79,0.00,OVC,FEW,0.00,WeatherDisplay:10.37,2013-05-07 08:46:00,
2013-05-07 03:52:00,57.2,50.7,29.95,NW,315,0.0,0.0,79,0.00,OVC,FEW,0.00,WeatherDisplay:10.37,2013-05-07 08:52:00,
2013-05-07 03:58:00,57.0,50.2,29.96,NW,315,0.0,0.0,78,0.00,OVC,FEW,0.00,WeatherDisplay:10.37,2013-05-07 08:58:00,
2013-05-07 04:03:00,57.0,50.2,29.96,NW,315,0.0,0.0,78,0.00,OVC,FEW,0.00,WeatherDisplay:10.37,2013-05-07 09:03:00,
2013-05-07 04:09:00,56.8,50.4,29.96,NW,315,0.0,0.0,79,0.00,OVC,FEW,0.00,WeatherDisplay:10.37,2013-05-07 09:09:00,
2013-05-07 04:14:00,56.7,50.2,29.96,NW,315,0.0,0.0,79,0.00,OVC,FEW,0.00,WeatherDisplay:10.37,2013-05-07 09:14:00,
2013-05-07 04:20:00,56.7,50.2,29.95,North,0,0.0,0.0,79,0.00,OVC,FEW,0.00,WeatherDisplay:10.37,2013-05-07 09:20:00,
2013-05-07 04:26:00,56.7,49.9,29.96,North,0,0.0,0.0,78,0.00,OVC,FEW,0.00,WeatherDisplay:10.37,2013-05-07 09:26:00,
2013-05-07 04:31:00,56.5,50.0,29.96,NW,315,0.0,0.0,79,0.00,OVC,FEW,0.00,WeatherDisplay:10.37,2013-05-07 09:31:00,
2013-05-07 04:37:00,56.5,50.4,29.96,NW,315,0.0,0.0,80,0.00,OVC,FEW,0.00,WeatherDisplay:10.37,2013-05-07 09:37:00,
2013-05-07 04:42:00,56.5,50.4,29.96,West,270,0.0,0.0,80,0.00,OVC,FEW,0.00,WeatherDisplay:10.37,2013-05-07 09:42:00,
2013-05-07 04:48:00,56.3,50.2,29.96,North,0,0.0,0.0,80,0.00,OVC,FEW,0.00,WeatherDisplay:10.37,2013-05-07 09:48:00,
2013-05-07 04:54:00,56.1,50.4,29.97,North,0,0.0,0.0,81,0.00,OVC,FEW,0.00,WeatherDisplay:10.37,2013-05-07 09:54:00,
2013-05-07 04:59:00,56.1,50.7,29.97,North,0,0.0,0.0,82,0.00,OVC,FEW,0.00,WeatherDisplay:10.37,2013-05-07 09:59:00,
2013-05-07 05:05:00,55.8,50.3,29.96,North,0,0.0,0.0,82,0.00,OVC,FEW,0.00,WeatherDisplay:10.37,2013-05-07 10:05:00,
2013-05-07 05:10:00,55.4,50.0,29.96,North,0,0.0,0.0,82,0.00,OVC,FEW,0.00,WeatherDisplay:10.37,2013-05-07 10:10:00,
2013-05-07 05:16:00,55.2,49.8,29.97,North,0,0.0,0.0,82,0.00,OVC,FEW,0.00,WeatherDisplay:10.37,2013-05-07 10:16:00,
2013-05-07 05:22:00,55.0,49.6,29.97,North,0,0.0,0.0,82,0.00,OVC,FEW,0.00,WeatherDisplay:10.37,2013-05-07 10:22:00,
2013-05-07 05:27:00,54.9,49.8,29.97,West,270,0.0,0.0,83,0.00,OVC,FEW,0.00,WeatherDisplay:10.37,2013-05-07 10:27:00,
2013-05-07 05:33:00,54.7,49.6,29.97,West,270,0.0,0.0,83,0.00,OVC,FEW,0.00,WeatherDisplay:10.37,2013-05-07 10:33:00,
2013-05-07 05:38:00,54.3,49.3,29.97,NW,315,0.0,0.0,83,0.00,OVC,FEW,0.00,WeatherDisplay:10.37,2013-05-07 10:38:00,
2013-05-07 05:44:00,54.1,49.4,29.97,NW,315,0.0,0.0,84,0.00,OVC,FEW,0.00,WeatherDisplay:10.37,2013-05-07 10:44:00,
2013-05-07 05:50:00,53.8,49.1,29.98,NW,315,0.0,0.0,84,0.00,OVC,FEW,0.00,WeatherDisplay:10.37,2013-05-07 10:50:00,
2013-05-07 05:55:00,53.6,48.9,29.97,NW,315,0.0,0.0,84,0.00,OVC,FEW,0.00,WeatherDisplay:10.37,2013-05-07 10:55:00,
2013-05-07 06:01:00,53.4,48.7,29.97,NW,315,0.0,0.0,84,0.00,OVC,FEW,0.00,WeatherDisplay:10.37,2013-05-07 11:01:00,
2013-05-07 06:06:00,53.4,48.7,29.98,SW,225,0.0,0.0,84,0.00,OVC,FEW,0.00,WeatherDisplay:10.37,2013-05-07 11:06:00,
2013-05-07 06:12:00,53.2,48.5,29.98,SW,225,0.0,0.0,84,0.00,OVC,FEW,0.00,WeatherDisplay:10.37,2013-05-07 11:12:00,
2013-05-07 06:18:00,53.1,48.4,29.97,SW,225,0.0,0.0,84,0.00,OVC,FEW,0.00,WeatherDisplay:10.37,2013-05-07 11:18:00,
2013-05-07 06:23:00,52.9,48.2,29.97,SW,225,0.0,0.0,84,0.00,OVC,FEW,0.00,WeatherDisplay:10.37,2013-05-07 11:23:00,
2013-05-07 06:29:00,52.9,48.2,29.98,SW,225,0.0,0.0,84,0.00,OVC,FEW,0.00,WeatherDisplay:10.37,2013-05-07 11:29:00,
2013-05-07 06:34:00,53.1,48.4,29.98,SW,225,0.0,0.0,84,0.00,OVC,FEW,0.00,WeatherDisplay:10.37,2013-05-07 11:34:00,
2013-05-07 06:40:00,53.1,48.4,29.98,SW,225,0.0,0.0,84,0.00,OVC,FEW,0.00,WeatherDisplay:10.37,2013-05-07 11:40:00,
2013-05-07 06:46:00,53.1,48.4,29.98,SW,225,0.0,0.0,84,0.00,OVC,FEW,0.00,WeatherDisplay:10.37,2013-05-07 11:46:00,
2013-05-07 06:51:00,53.2,48.5,29.98,SW,225,0.0,0.0,84,0.00,OVC,FEW,0.00,WeatherDisplay:10.37,2013-05-07 11:51:00,
2013-05-07 06:57:00,54.1,49.4,29.99,SW,225,0.0,0.0,84,0.00,OVC,FEW,0.00,WeatherDisplay:10.37,2013-05-07 11:57:00,
2013-05-07 07:02:00,54.5,49.8,29.99,SW,225,0.0,0.0,84,0.00,OVC,FEW,0.00,WeatherDisplay:10.37,2013-05-07 12:02:00,
2013-05-07 07:08:00,54.7,49.9,29.99,SW,225,0.0,0.0,84,0.00,OVC,FEW,0.00,WeatherDisplay:10.37,2013-05-07 12:08:00,
2013-05-07 07:14:00,55.0,50.3,29.99,SW,225,0.0,0.0,84,0.00,OVC,FEW,0.00,WeatherDisplay:10.37,2013-05-07 12:14:00,
2013-05-07 07:19:00,55.8,51.0,29.99,North,0,0.0,0.0,84,0.00,OVC,FEW,0.00,WeatherDisplay:10.37,2013-05-07 12:19:00,
2013-05-07 07:25:00,56.3,51.5,29.99,North,0,0.0,0.0,84,0.00,OVC,FEW,0.00,WeatherDisplay:10.37,2013-05-07 12:25:00,
2013-05-07 07:30:00,56.7,51.9,29.99,North,0,0.0,0.0,84,0.00,OVC,FEW,0.00,WeatherDisplay:10.37,2013-05-07 12:30:00,
2013-05-07 07:36:00,57.7,52.9,29.99,North,0,0.0,0.0,84,0.00,OVC,FEW,0.00,WeatherDisplay:10.37,2013-05-07 12:36:00,
2013-05-07 07:42:00,58.6,52.5,29.99,SW,225,0.0,0.0,80,0.00,OVC,FEW,0.00,WeatherDisplay:10.37,2013-05-07 12:42:00,
2013-05-07 07:47:00,59.0,52.5,29.99,SW,225,0.0,0.0,79,0.00,OVC,FEW,0.00,WeatherDisplay:10.37,2013-05-07 12:47:00,
2013-05-07 07:53:00,59.7,52.1,29.99,SW,225,0.0,0.0,76,0.00,OVC,FEW,0.00,WeatherDisplay:10.37,2013-05-07 12:53:00,
2013-05-07 07:58:00,61.5,50.5,29.99,West,270,0.0,0.0,67,0.00,OVC,FEW,0.00,WeatherDisplay:10.37,2013-05-07 12:58:00,
2013-05-07 08:04:00,62.6,49.8,29.99,SW,225,0.0,1.2,63,0.00,OVC,FEW,0.00,WeatherDisplay:10.37,2013-05-07 13:04:00,
2013-05-07 08:10:00,62.8,50.4,29.99,SE,135,0.0,1.2,64,0.00,OVC,FEW,0.00,WeatherDisplay:10.37,2013-05-07 13:10:00,
2013-05-07 08:15:00,63.0,48.9,29.99,SE,135,0.7,1.6,60,0.00,OVC,FEW,0.00,WeatherDisplay:10.37,2013-05-07 13:15:00,
2013-05-07 08:21:00,63.5,48.5,29.99,South,180,0.0,1.2,58,0.00,OVC,FEW,0.00,WeatherDisplay:10.37,2013-05-07 13:21:00,
2013-05-07 08:26:00,64.8,48.7,29.99,West,270,0.0,2.3,56,0.00,OVC,FEW,0.00,WeatherDisplay:10.37,2013-05-07 13:26:00,
2013-05-07 08:32:00,66.0,46.8,29.99,South,180,0.7,3.5,50,0.00,OVC,FEW,0.00,WeatherDisplay:10.37,2013-05-07 13:32:00,
2013-05-07 08:38:00,66.4,48.2,29.99,South,180,1.6,2.3,52,0.00,OVC,FEW,0.00,WeatherDisplay:10.37,2013-05-07 13:38:00,
2013-05-07 08:43:00,66.2,48.0,29.99,South,180,0.7,2.3,52,0.00,OVC,FEW,0.00,WeatherDisplay:10.37,2013-05-07 13:43:00,
2013-05-07 08:49:00,67.3,49.0,29.99,SSE,158,0.7,1.6,52,0.00,OVC,FEW,0.00,WeatherDisplay:10.37,2013-05-07 13:49:00,
2013-05-07 08:54:00,69.4,50.5,30.00,SE,135,0.0,1.2,51,0.00,OVC,FEW,0.00,WeatherDisplay:10.37,2013-05-07 13:54:00,
2013-05-07 09:00:00,71.4,49.0,30.00,NW,315,0.0,2.3,45,0.00,OVC,FEW,0.00,WeatherDisplay:10.37,2013-05-07 14:00:00,
2013-05-07 09:06:00,73.8,45.9,29.99,South,180,0.7,3.5,37,0.00,OVC,FEW,0.00,WeatherDisplay:10.37,2013-05-07 14:06:00,
2013-05-07 09:11:00,75.2,46.4,29.99,NW,315,0.7,2.3,36,0.00,OVC,FEW,0.00,WeatherDisplay:10.37,2013-05-07 14:11:00,
2013-05-07 09:17:00,76.6,46.9,30.00,NE,45,0.0,1.6,35,0.00,OVC,FEW,0.00,WeatherDisplay:10.37,2013-05-07 14:17:00,
2013-05-07 09:22:00,77.4,44.4,29.99,South,180,0.0,2.3,31,0.00,OVC,FEW,0.00,WeatherDisplay:10.37,2013-05-07 14:22:00,
2013-05-07 09:28:00,77.7,42.0,29.99,NW,315,0.7,3.5,28,0.00,OVC,FEW,0.00,WeatherDisplay:10.37,2013-05-07 14:28:00,
2013-05-07 09:34:00,78.3,42.5,30.00,North,0,0.0,1.2,28,0.00,OVC,FEW,0.00,WeatherDisplay:10.37,2013-05-07 14:34:00,
2013-05-07 09:39:00,79.2,39.2,29.99,North,0,2.2,3.8,24,0.00,OVC,FEW,0.00,WeatherDisplay:10.37,2013-05-07 14:39:00,
2013-05-07 09:45:00,78.8,41.0,29.99,West,270,0.0,3.5,26,0.00,OVC,FEW,0.00,WeatherDisplay:10.37,2013-05-07 14:45:00,
2013-05-07 09:50:00,78.8,38.9,29.99,NW,315,1.6,3.5,24,0.00,OVC,FEW,0.00,WeatherDisplay:10.37,2013-05-07 14:50:00,
2013-05-07 09:56:00,78.8,41.0,29.99,NW,315,0.0,3.5,26,0.00,OVC,FEW,0.00,WeatherDisplay:10.37,2013-05-07 14:56:00,
2013-05-07 10:02:00,79.0,43.1,29.99,NW,315,0.0,3.5,28,0.00,OVC,FEW,0.00,WeatherDisplay:10.37,2013-05-07 15:02:00,
2013-05-07 10:07:00,78.6,40.9,29.99,North,0,1.6,4.6,26,0.00,OVC,FEW,0.00,WeatherDisplay:10.37,2013-05-07 15:07:00,
2013-05-07 10:13:00,79.0,40.1,29.99,East,90,0.7,2.3,25,0.00,OVC,FEW,0.00,WeatherDisplay:10.37,2013-05-07 15:13:00,
2013-05-07 10:18:00,79.5,42.6,29.99,NW,315,1.6,4.6,27,0.00,OVC,FEW,0.00,WeatherDisplay:10.37,2013-05-07 15:18:00,
2013-05-07 10:24:00,79.7,41.8,29.99,North,0,0.7,3.5,26,0.00,OVC,FEW,0.00,WeatherDisplay:10.37,2013-05-07 15:24:00,
2013-05-07 10:30:00,80.4,41.4,29.99,East,90,1.6,3.5,25,0.00,OVC,FEW,0.00,WeatherDisplay:10.37,2013-05-07 15:30:00,
2013-05-07 10:35:00,79.7,42.8,29.99,NE,45,0.7,5.8,27,0.00,OVC,FEW,0.00,WeatherDisplay:10.37,2013-05-07 15:35:00,
2013-05-07 10:41:00,79.5,40.6,29.99,NE,45,1.6,4.6,25,0.00,OVC,FEW,0.00,WeatherDisplay:10.37,2013-05-07 15:41:00,
2013-05-07 10:46:00,79.9,41.9,29.99,East,90,2.2,2.3,26,0.00,OVC,FEW,0.00,WeatherDisplay:10.37,2013-05-07 15:46:00,
2013-05-07 10:52:00,79.3,41.5,29.99,East,90,2.2,3.5,26,0.00,OVC,FEW,0.00,WeatherDisplay:10.37,2013-05-07 15:52:00,
2013-05-07 10:58:00,78.6,42.8,29.99,NW,315,3.8,3.8,28,0.00,OVC,FEW,0.00,WeatherDisplay:10.37,2013-05-07 15:58:00,
2013-05-07 11:03:00,78.6,40.9,29.99,East,90,2.2,4.6,26,0.00,OVC,FEW,0.00,WeatherDisplay:10.37,2013-05-07 16:03:00,
2013-05-07 11:09:00,79.0,42.1,30.00,NE,45,1.6,3.5,27,0.00,OVC,FEW,0.00,WeatherDisplay:10.37,2013-05-07 16:09:00,
2013-05-07 11:14:00,79.5,42.6,29.99,North,0,0.7,3.5,27,0.00,OVC,FEW,0.00,WeatherDisplay:10.37,2013-05-07 16:14:00,
2013-05-07 11:19:00,80.6,44.5,29.99,East,90,0.0,3.5,28,0.00,OVC,FEW,0.00,WeatherDisplay:10.37,2013-05-07 16:19:00,
2013-05-07 11:25:00,81.5,42.3,29.99,SE,135,0.7,2.3,25,0.00,OVC,FEW,0.00,WeatherDisplay:10.37,2013-05-07 16:25:00,
2013-05-07 11:30:00,81.5,40.1,29.99,SW,225,2.2,3.5,23,0.00,OVC,FEW,0.00,WeatherDisplay:10.37,2013-05-07 16:30:00,
2013-05-07 11:36:00,81.7,40.3,29.99,SE,135,0.7,3.5,23,0.00,OVC,FEW,0.00,WeatherDisplay:10.37,2013-05-07 16:36:00,
2013-05-07 11:42:00,81.1,43.0,29.99,NE,45,1.6,3.5,26,0.00,OVC,FEW,0.00,WeatherDisplay:10.37,2013-05-07 16:42:00,
2013-05-07 11:47:00,80.6,42.5,29.99,NE,45,2.2,5.8,26,0.00,OVC,FEW,0.00,WeatherDisplay:10.37,2013-05-07 16:47:00,
2013-05-07 11:53:00,79.9,39.9,29.99,North,0,4.5,8.1,24,0.00,OVC,FEW,0.00,WeatherDisplay:10.37,2013-05-07 16:53:00,
2013-05-07 11:58:00,79.9,40.9,29.98,East,90,2.2,6.9,25,0.00,OVC,FEW,0.00,WeatherDisplay:10.37,2013-05-07 16:58:00,
2013-05-07 12:04:00,79.5,42.6,29.98,NW,315,0.7,5.8,27,0.00,OVC,FEW,0.00,WeatherDisplay:10.37,2013-05-07 17:04:00,
2013-05-07 12:10:00,80.2,42.2,29.98,NE,45,0.7,3.5,26,0.00,OVC,FEW,0.00,WeatherDisplay:10.37,2013-05-07 17:10:00,
2013-05-07 12:15:00,81.0,40.8,29.98,North,0,1.6,5.8,24,0.00,OVC,FEW,0.00,WeatherDisplay:10.37,2013-05-07 17:15:00,
2013-05-07 12:21:00,81.7,42.4,29.97,NW,315,1.6,4.5,25,0.00,OVC,FEW,0.00,WeatherDisplay:10.37,2013-05-07 17:21:00,
2013-05-07 12:26:00,80.8,40.6,29.98,East,90,2.2,6.0,24,0.00,OVC,FEW,0.00,WeatherDisplay:10.37,2013-05-07 17:26:00,
2013-05-07 12:32:00,80.8,40.6,29.97,West,270,1.6,3.5,24,0.00,OVC,FEW,0.00,WeatherDisplay:10.37,2013-05-07 17:32:00,
2013-05-07 12:38:00,81.7,42.4,29.98,North,0,1.6,8.1,25,0.00,OVC,FEW,0.00,WeatherDisplay:10.37,2013-05-07 17:38:00,
2013-05-07 12:43:00,81.1,43.0,29.97,East,90,0.0,4.6,26,0.00,OVC,FEW,0.00,WeatherDisplay:10.37,2013-05-07 17:43:00,
2013-05-07 12:49:00,82.0,40.6,29.97,North,0,0.7,3.5,23,0.00,OVC,FEW,0.00,WeatherDisplay:10.37,2013-05-07 17:49:00,
2013-05-07 12:54:00,81.5,37.8,29.97,NE,45,4.5,6.9,21,0.00,OVC,FEW,0.00,WeatherDisplay:10.37,2013-05-07 17:54:00,
2013-05-07 13:00:00,80.8,40.6,29.97,East,90,3.1,8.1,24,0.00,OVC,FEW,0.00,WeatherDisplay:10.37,2013-05-07 18:00:00,
2013-05-07 13:06:00,81.3,41.1,29.96,NW,315,0.7,3.5,24,0.00,OVC,FEW,0.00,WeatherDisplay:10.37,2013-05-07 18:06:00,
2013-05-07 13:11:00,82.6,38.7,29.96,East,90,1.6,5.8,21,0.00,OVC,FEW,0.00,WeatherDisplay:10.37,2013-05-07 18:11:00,
2013-05-07 13:17:00,81.9,40.4,29.96,East,90,1.6,8.1,23,0.00,OVC,FEW,0.00,WeatherDisplay:10.37,2013-05-07 18:17:00,
2013-05-07 13:22:00,82.2,41.8,29.96,North,0,0.7,3.5,24,0.00,OVC,FEW,0.00,WeatherDisplay:10.37,2013-05-07 18:22:00,
2013-05-07 13:28:00,82.2,40.7,29.96,North,0,0.7,6.9,23,0.00,OVC,FEW,0.00,WeatherDisplay:10.37,2013-05-07 18:28:00,
2013-05-07 13:34:00,82.2,35.8,29.96,West,270,0.7,4.6,19,0.00,OVC,FEW,0.00,WeatherDisplay:10.37,2013-05-07 18:34:00,
2013-05-07 13:39:00,82.4,37.3,29.96,SE,135,1.6,4.6,20,0.00,OVC,FEW,0.00,WeatherDisplay:10.37,2013-05-07 18:39:00,
2013-05-07 13:45:00,82.8,40.0,29.96,North,0,0.7,3.5,22,0.00,OVC,FEW,0.00,WeatherDisplay:10.37,2013-05-07 18:45:00,
2013-05-07 13:50:00,82.6,41.0,29.96,North,0,1.6,5.8,23,0.00,OVC,FEW,0.00,WeatherDisplay:10.37,2013-05-07 18:50:00,
2013-05-07 13:56:00,82.2,38.4,29.95,North,0,1.6,4.6,21,0.00,OVC,FEW,0.00,WeatherDisplay:10.37,2013-05-07 18:56:00,
2013-05-07 14:02:00,80.8,38.4,29.96,East,90,4.5,6.9,22,0.00,OVC,FEW,0.00,WeatherDisplay:10.37,2013-05-07 19:02:00,
2013-05-07 14:07:00,81.1,37.5,29.95,South,180,1.6,4.6,21,0.00,OVC,FEW,0.00,WeatherDisplay:10.37,2013-05-07 19:07:00,
2013-05-07 14:13:00,82.2,40.7,29.95,NE,45,2.2,3.5,23,0.00,OVC,FEW,0.00,WeatherDisplay:10.37,2013-05-07 19:13:00,
2013-05-07 14:18:00,81.9,38.1,29.95,North,0,2.2,5.8,21,0.00,OVC,FEW,0.00,WeatherDisplay:10.37,2013-05-07 19:18:00,
2013-05-07 14:24:00,81.5,36.5,29.95,NW,315,1.6,5.8,20,0.00,OVC,FEW,0.00,WeatherDisplay:10.37,2013-05-07 19:24:00,
2013-05-07 14:30:00,81.9,38.1,29.95,NE,45,1.6,3.5,21,0.00,OVC,FEW,0.00,WeatherDisplay:10.37,2013-05-07 19:30:00,
2013-05-07 14:35:00,82.9,35.1,29.95,North,0,1.6,4.5,18,0.00,OVC,FEW,0.00,WeatherDisplay:10.37,2013-05-07 19:35:00,
2013-05-07 14:41:00,82.8,34.9,29.95,North,0,0.7,4.6,18,0.00,OVC,FEW,0.00,WeatherDisplay:10.37,2013-05-07 19:41:00,
2013-05-07 14:46:00,82.0,34.3,29.95,NW,315,1.6,5.8,18,0.00,OVC,FEW,0.00,WeatherDisplay:10.37,2013-05-07 19:46:00,
2013-05-07 14:52:00,82.9,35.1,29.95,East,90,0.7,3.5,18,0.00,OVC,FEW,0.00,WeatherDisplay:10.37,2013-05-07 19:52:00,
2013-05-07 14:58:00,82.9,36.4,29.94,North,0,2.2,5.4,19,0.00,OVC,FEW,0.00,WeatherDisplay:10.37,2013-05-07 19:58:00,
2013-05-07 15:03:00,82.6,34.8,29.94,North,0,2.2,5.8,18,0.00,OVC,FEW,0.00,WeatherDisplay:10.37,2013-05-07 20:03:00,
2013-05-07 15:09:00,81.9,34.2,29.94,NW,315,3.1,5.8,18,0.00,OVC,FEW,0.00,WeatherDisplay:10.37,2013-05-07 20:09:00,
2013-05-07 15:14:00,82.2,37.1,29.94,South,180,0.0,5.8,20,0.00,OVC,FEW,0.00,WeatherDisplay:10.37,2013-05-07 20:14:00,
2013-05-07 15:20:00,84.2,37.5,29.93,NE,45,0.0,3.5,19,0.00,OVC,FEW,0.00,WeatherDisplay:10.37,2013-05-07 20:20:00,
2013-05-07 15:26:00,85.3,37.0,29.93,NE,45,0.7,3.5,18,0.00,OVC,FEW,0.00,WeatherDisplay:10.37,2013-05-07 20:26:00,
2013-05-07 15:31:00,84.6,36.4,29.93,North,0,0.7,5.8,18,0.00,OVC,FEW,0.00,WeatherDisplay:10.37,2013-05-07 20:31:00,
2013-05-07 15:37:00,85.5,34.1,29.93,North,0,0.7,3.5,16,0.00,OVC,FEW,0.00,WeatherDisplay:10.37,2013-05-07 20:37:00,
2013-05-07 15:42:00,84.9,35.2,29.93,East,90,1.6,3.1,17,0.00,OVC,FEW,0.00,WeatherDisplay:10.37,2013-05-07 20:42:00,
2013-05-07 15:48:00,84.2,34.6,29.93,SE,135,1.6,4.6,17,0.00,OVC,FEW,0.00,WeatherDisplay:10.37,2013-05-07 20:48:00,
2013-05-07 15:54:00,84.4,34.8,29.93,NE,45,1.6,3.1,17,0.00,OVC,FEW,0.00,WeatherDisplay:10.37,2013-05-07 20:54:00,
2013-05-07 15:59:00,83.8,35.8,29.93,NE,45,0.0,6.9,18,0.00,OVC,FEW,0.00,WeatherDisplay:10.37,2013-05-07 20:59:00,
2013-05-07 16:05:00,83.7,35.6,29.93,North,0,2.2,3.8,18,0.00,OVC,FEW,0.00,WeatherDisplay:10.37,2013-05-07 21:05:00,
2013-05-07 16:10:00,83.3,36.7,29.93,North,0,1.6,3.8,19,0.00,OVC,FEW,0.00,WeatherDisplay:10.37,2013-05-07 21:10:00,
2013-05-07 16:16:00,83.3,35.4,29.93,NW,315,0.7,3.5,18,0.00,OVC,FEW,0.00,WeatherDisplay:10.37,2013-05-07 21:16:00,
2013-05-07 16:22:00,83.1,36.6,29.92,North,0,0.7,6.9,19,0.00,OVC,FEW,0.00,WeatherDisplay:10.37,2013-05-07 21:22:00,
2013-05-07 16:27:00,82.6,36.1,29.92,North,0,1.6,5.8,19,0.00,OVC,FEW,0.00,WeatherDisplay:10.37,2013-05-07 21:27:00,
2013-05-07 16:33:00,82.8,38.8,29.93,North,0,0.7,3.5,21,0.00,OVC,FEW,0.00,WeatherDisplay:10.37,2013-05-07 21:33:00,
2013-05-07 16:38:00,82.4,34.6,29.93,South,180,0.0,4.6,18,0.00,OVC,FEW,0.00,WeatherDisplay:10.37,2013-05-07 21:38:00,
2013-05-07 16:44:00,82.4,36.0,29.92,East,90,0.0,1.2,19,0.00,OVC,FEW,0.00,WeatherDisplay:10.37,2013-05-07 21:44:00,
2013-05-07 16:50:00,81.9,36.8,29.92,East,90,3.1,6.0,20,0.00,OVC,FEW,0.00,WeatherDisplay:10.37,2013-05-07 21:50:00,
2013-05-07 16:55:00,80.6,39.4,29.92,NE,45,1.6,6.9,23,0.00,OVC,FEW,0.00,WeatherDisplay:10.37,2013-05-07 21:55:00,
2013-05-07 17:01:00,80.2,36.7,29.92,East,90,1.6,4.6,21,0.00,OVC,FEW,0.00,WeatherDisplay:10.37,2013-05-07 22:01:00,
2013-05-07 17:06:00,80.6,37.0,29.92,North,0,0.0,3.5,21,0.00,OVC,FEW,0.00,WeatherDisplay:10.37,2013-05-07 22:06:00,
2013-05-07 17:12:00,80.2,36.7,29.92,North,0,1.6,5.8,21,0.00,OVC,FEW,0.00,WeatherDisplay:10.37,2013-05-07 22:12:00,
2013-05-07 17:18:00,79.7,36.3,29.92,North,0,3.1,5.4,21,0.00,OVC,FEW,0.00,WeatherDisplay:10.37,2013-05-07 22:18:00,
2013-05-07 17:23:00,79.2,33.3,29.92,NW,315,3.1,5.8,19,0.00,OVC,FEW,0.00,WeatherDisplay:10.37,2013-05-07 22:23:00,
2013-05-07 17:29:00,79.2,34.6,29.92,West,270,0.7,4.6,20,0.00,OVC,FEW,0.00,WeatherDisplay:10.37,2013-05-07 22:29:00,
2013-05-07 17:34:00,79.5,38.5,29.92,NE,45,0.0,1.2,23,0.00,OVC,FEW,0.00,WeatherDisplay:10.37,2013-05-07 22:34:00,
2013-05-07 17:40:00,79.5,38.5,29.92,East,90,0.0,3.5,23,0.00,OVC,FEW,0.00,WeatherDisplay:10.37,2013-05-07 22:40:00,
2013-05-07 17:46:00,79.5,36.1,29.92,SE,135,0.0,2.3,21,0.00,OVC,FEW,0.00,WeatherDisplay:10.37,2013-05-07 22:46:00,
2013-05-07 17:51:00,79.5,36.1,29.92,East,90,0.7,3.5,21,0.00,OVC,FEW,0.00,WeatherDisplay:10.37,2013-05-07 22:51:00,
2013-05-07 17:57:00,79.2,34.6,29.92,NE,45,2.2,3.8,20,0.00,OVC,FEW,0.00,WeatherDisplay:10.37,2013-05-07 22:57:00,
2013-05-07 18:02:00,79.0,39.1,29.92,North,0,0.0,1.2,24,0.00,OVC,FEW,0.00,WeatherDisplay:10.37,2013-05-07 23:02:00,
2013-05-07 18:08:00,79.0,35.7,29.91,NE,45,2.2,4.6,21,0.00,OVC,FEW,0.00,WeatherDisplay:10.37,2013-05-07 23:08:00,
2013-05-07 18:14:00,79.2,37.0,29.92,East,90,0.7,2.3,22,0.00,OVC,FEW,0.00,WeatherDisplay:10.37,2013-05-07 23:14:00,
2013-05-07 18:19:00,79.0,35.7,29.91,NE,45,0.0,3.5,21,0.00,OVC,FEW,0.00,WeatherDisplay:10.37,2013-05-07 23:19:00,
2013-05-07 18:25:00,78.6,35.4,29.91,South,180,0.0,3.5,21,0.00,OVC,FEW,0.00,WeatherDisplay:10.37,2013-05-07 23:25:00,
2013-05-07 18:30:00,78.4,36.4,29.91,East,90,0.0,2.3,22,0.00,OVC,FEW,0.00,WeatherDisplay:10.37,2013-05-07 23:30:00,
2013-05-07 18:36:00,78.1,36.1,29.91,SE,135,0.0,3.5,22,0.00,OVC,FEW,0.00,WeatherDisplay:10.37,2013-05-07 23:36:00,
2013-05-07 18:42:00,77.2,36.5,29.91,East,90,0.0,1.2,23,0.00,OVC,FEW,0.00,WeatherDisplay:10.37,2013-05-07 23:42:00,
2013-05-07 18:47:00,76.6,36.0,29.92,East,90,0.0,0.0,23,0.00,OVC,FEW,0.00,WeatherDisplay:10.37,2013-05-07 23:47:00,
2013-05-07 18:53:00,76.1,36.7,29.92,West,270,0.0,0.0,24,0.00,OVC,FEW,0.00,WeatherDisplay:10.37,2013-05-07 23:53:00,
2013-05-07 18:58:00,75.6,37.2,29.91,West,270,0.0,0.0,25,0.00,OVC,FEW,0.00,WeatherDisplay:10.37,2013-05-07 23:58:00,
2013-05-07 19:04:00,75.0,36.8,29.91,West,270,0.0,0.0,25,0.00,OVC,FEW,0.00,WeatherDisplay:10.37,2013-05-08 00:04:00,
2013-05-07 19:10:00,74.7,37.5,29.91,West,270,0.0,0.0,26,0.00,OVC,FEW,0.00,WeatherDisplay:10.37,2013-05-08 00:10:00,
2013-05-07 19:15:00,74.1,36.0,29.91,East,90,0.0,0.0,25,0.00,OVC,FEW,0.00,WeatherDisplay:10.37,2013-05-08 00:15:00,
2013-05-07 19:21:00,73.9,36.9,29.91,East,90,0.0,0.0,26,0.00,OVC,FEW,0.00,WeatherDisplay:10.37,2013-05-08 00:21:00,
2013-05-07 19:26:00,73.8,36.7,29.91,East,90,0.0,0.0,26,0.00,OVC,FEW,0.00,WeatherDisplay:10.37,2013-05-08 00:26:00,
2013-05-07 19:32:00,73.4,37.4,29.92,East,90,0.0,0.0,27,0.00,OVC,FEW,0.00,WeatherDisplay:10.37,2013-05-08 00:32:00,
2013-05-07 19:38:00,72.9,37.8,29.92,East,90,0.0,0.0,28,0.00,OVC,FEW,0.00,WeatherDisplay:10.37,2013-05-08 00:38:00,
2013-05-07 19:43:00,72.7,38.6,29.92,East,90,0.0,0.0,29,0.00,OVC,FEW,0.00,WeatherDisplay:10.37,2013-05-08 00:43:00,
2013-05-07 19:49:00,72.1,39.0,29.92,East,90,0.0,0.0,30,0.00,OVC,FEW,0.00,WeatherDisplay:10.37,2013-05-08 00:49:00,
2013-05-07 19:54:00,71.8,40.3,29.92,East,90,0.0,0.0,32,0.00,OVC,FEW,0.00,WeatherDisplay:10.37,2013-05-08 00:54:00,
2013-05-07 20:00:00,71.4,40.8,29.92,East,90,0.0,0.0,33,0.00,OVC,FEW,0.00,WeatherDisplay:10.37,2013-05-08 01:00:00,
2013-05-07 20:06:00,71.1,41.3,29.92,East,90,0.0,0.0,34,0.00,OVC,FEW,0.00,WeatherDisplay:10.37,2013-05-08 01:06:00,
2013-05-07 20:11:00,70.7,40.2,29.93,East,90,0.0,0.0,33,0.00,OVC,FEW,0.00,WeatherDisplay:10.37,2013-05-08 01:11:00,
2013-05-07 20:17:00,70.2,40.5,29.92,East,90,0.0,0.0,34,0.00,OVC,FEW,0.00,WeatherDisplay:10.37,2013-05-08 01:17:00,
2013-05-07 20:22:00,69.6,40.0,29.92,East,90,0.0,0.0,34,0.00,OVC,FEW,0.00,WeatherDisplay:10.37,2013-05-08 01:22:00,
2013-05-07 20:28:00,69.3,41.9,29.93,SE,135,0.0,0.0,37,0.00,OVC,FEW,0.00,WeatherDisplay:10.37,2013-05-08 01:28:00,
2013-05-07 20:34:00,68.9,41.5,29.93,SE,135,0.0,0.0,37,0.00,OVC,FEW,0.00,WeatherDisplay:10.37,2013-05-08 01:34:00,
2013-05-07 20:39:00,68.7,41.4,29.93,SE,135,0.0,0.0,37,0.00,OVC,FEW,0.00,WeatherDisplay:10.37,2013-05-08 01:39:00,
2013-05-07 20:45:00,68.4,41.1,29.93,SE,135,0.0,0.0,37,0.00,OVC,FEW,0.00,WeatherDisplay:10.37,2013-05-08 01:45:00,
2013-05-07 20:50:00,68.0,41.4,29.93,SE,135,0.0,0.0,38,0.00,OVC,FEW,0.00,WeatherDisplay:10.37,2013-05-08 01:50:00,
2013-05-07 20:56:00,67.6,40.4,29.93,SE,135,0.0,0.0,37,0.00,OVC,FEW,0.00,WeatherDisplay:10.37,2013-05-08 01:56:00,
2013-05-07 21:02:00,67.5,42.3,29.93,SE,135,0.0,0.0,40,0.00,OVC,FEW,0.00,WeatherDisplay:10.37,2013-05-08 02:02:00,
2013-05-07 21:07:00,67.5,44.2,29.93,NW,315,0.0,0.0,43,0.00,OVC,FEW,0.00,WeatherDisplay:10.37,2013-05-08 02:07:00,
2013-05-07 21:13:00,67.3,44.6,29.93,SW,225,0.0,0.0,44,0.00,OVC,FEW,0.00,WeatherDisplay:10.37,2013-05-08 02:13:00,
2013-05-07 21:18:00,67.1,45.6,29.93,SW,225,0.0,1.2,46,0.00,OVC,FEW,0.00,WeatherDisplay:10.37,2013-05-08 02:18:00,
2013-05-07 21:24:00,66.9,43.7,29.94,North,0,0.0,0.0,43,0.00,OVC,FEW,0.00,WeatherDisplay:10.37,2013-05-08 02:24:00,
2013-05-07 21:30:00,67.1,42.6,29.94,North,0,0.0,0.0,41,0.00,OVC,FEW,0.00,WeatherDisplay:10.37,2013-05-08 02:30:00,
2013-05-07 21:35:00,67.1,43.2,29.94,North,0,0.0,0.0,42,0.00,OVC,FEW,0.00,WeatherDisplay:10.37,2013-05-08 02:35:00,
2013-05-07 21:41:00,66.9,44.3,29.94,North,0,0.0,0.0,44,0.00,OVC,FEW,0.00,WeatherDisplay:10.37,2013-05-08 02:41:00,
2013-05-07 21:46:00,66.9,44.3,29.94,North,0,0.0,0.0,44,0.00,OVC,FEW,0.00,WeatherDisplay:10.37,2013-05-08 02:46:00,
2013-05-07 21:52:00,66.7,44.7,29.94,North,0,0.0,0.0,45,0.00,OVC,FEW,0.00,WeatherDisplay:10.37,2013-05-08 02:52:00,
2013-05-07 21:58:00,66.7,44.1,29.94,North,0,0.0,0.0,44,0.00,OVC,FEW,0.00,WeatherDisplay:10.37,2013-05-08 02:58:00,
2013-05-07 22:03:00,66.7,44.7,29.94,West,270,0.0,0.0,45,0.00,OVC,FEW,0.00,WeatherDisplay:10.37,2013-05-08 03:03:00,
2013-05-07 22:09:00,66.6,45.1,29.94,West,270,0.0,0.0,46,0.00,OVC,FEW,0.00,WeatherDisplay:10.37,2013-05-08 03:09:00,
2013-05-07 22:14:00,66.4,45.0,29.94,West,270,0.0,0.0,46,0.00,OVC,FEW,0.00,WeatherDisplay:10.37,2013-05-08 03:14:00,
2013-05-07 22:20:00,66.0,44.6,29.94,West,270,0.0,0.0,46,0.00,OVC,FEW,0.00,WeatherDisplay:10.37,2013-05-08 03:20:00,
2013-05-07 22:26:00,65.7,45.4,29.94,West,270,0.0,0.0,48,0.00,OVC,FEW,0.00,WeatherDisplay:10.37,2013-05-08 03:26:00,
2013-05-07 22:31:00,65.7,46.0,29.94,West,270,0.0,0.0,49,0.00,OVC,FEW,0.00,WeatherDisplay:10.37,2013-05-08 03:31:00,
2013-05-07 22:37:00,65.5,46.3,29.94,West,270,0.0,0.0,50,0.00,OVC,FEW,0.00,WeatherDisplay:10.37,2013-05-08 03:37:00,
2013-05-07 22:42:00,65.1,46.0,29.94,West,270,0.0,0.0,50,0.00,OVC,FEW,0.00,WeatherDisplay:10.37,2013-05-08 03:42:00,
2013-05-07 22:48:00,64.8,45.7,29.94,West,270,0.0,0.0,50,0.00,OVC,FEW,0.00,WeatherDisplay:10.37,2013-05-08 03:48:00,
2013-05-07 22:54:00,64.2,45.7,29.94,West,270,0.0,0.0,51,0.00,OVC,FEW,0.00,WeatherDisplay:10.37,2013-05-08 03:54:00,
2013-05-07 22:59:00,64.0,46.1,29.94,West,270,0.0,0.0,52,0.00,OVC,FEW,0.00,WeatherDisplay:10.37,2013-05-08 03:59:00,
2013-05-07 23:01:00,63.9,46.4,29.94,West,270,0.0,0.0,53,0.00,OVC,FEW,0.00,WeatherDisplay:10.37,2013-05-08 04:01:00,
2013-05-07 23:02:00,63.9,46.4,29.94,West,270,0.0,0.0,53,0.00,OVC,FEW,0.00,WeatherDisplay:10.37,2013-05-08 04:02:00,
2013-05-07 23:03:00,63.9,46.4,29.93,West,270,0.0,0.0,53,0.00,OVC,FEW,0.00,WeatherDisplay:10.37,2013-05-08 04:03:00,
2013-05-07 23:09:00,63.3,46.4,29.94,West,270,0.0,0.0,54,0.00,OVC,FEW,0.00,WeatherDisplay:10.37,2013-05-08 04:09:00,
2013-05-07 23:11:00,63.3,46.9,29.94,West,270,0.0,0.0,55,0.00,OVC,FEW,0.00,WeatherDisplay:10.37,2013-05-08 04:11:00,
2013-05-07 23:17:00,63.0,47.0,29.93,West,270,0.0,0.0,56,0.00,OVC,FEW,0.00,WeatherDisplay:10.37,2013-05-08 04:17:00,
2013-05-07 23:22:00,62.8,47.8,29.94,West,270,0.0,0.0,58,0.00,OVC,FEW,0.00,WeatherDisplay:10.37,2013-05-08 04:22:00,
2013-05-07 23:28:00,62.4,47.4,29.93,West,270,0.0,0.0,58,0.00,OVC,FEW,0.00,WeatherDisplay:10.37,2013-05-08 04:28:00,
2013-05-07 23:34:00,62.1,47.1,29.93,West,270,0.0,0.0,58,0.00,OVC,FEW,0.00,WeatherDisplay:10.37,2013-05-08 04:34:00,
2013-05-07 23:39:00,62.1,46.6,29.93,West,270,0.0,0.0,57,0.00,OVC,FEW,0.00,WeatherDisplay:10.37,2013-05-08 04:39:00,
2013-05-07 23:45:00,62.1,46.2,29.93,West,270,0.0,0.0,56,0.00,OVC,FEW,0.00,WeatherDisplay:10.37,2013-05-08 04:45:00,
2013-05-07 23:50:00,61.7,46.3,29.93,West,270,0.0,0.0,57,0.00,OVC,FEW,0.00,WeatherDisplay:10.37,2013-05-08 04:50:00,
2013-05-07 23:56:00,61.5,46.6,29.93,West,270,0.0,0.0,58,0.00,OVC,FEW,0.00,WeatherDisplay:10.37,2013-05-08 04:56:00,